Simultaneous Nadir Overpasses (SNOs) Predictions

Prediction of SNOs near US between AQUA and NPP Satellite Orbit:

Table of predicted SNOs near US for the next 10.0 days since TLE Epoch: 9/10/2022
Index Date (AQUA) Time (AQUA) AQUA Lat,Lon Date (NPP) Time (NPP) NPP Lat,Lon Distance(km) Time Diff (sec)
1 09/13/2022 07:43:32 44.12, -82.73 09/13/2022 07:41:53 44.56, -85.44 220.66 99
2 09/13/2022 09:20:46 49.94,-105.20 09/13/2022 09:21:39 50.55,-108.33 232.57 53
3 09/15/2022 20:18:17 49.97,-109.33 09/15/2022 20:11:58 49.54,-111.94 192.96 379
